Погода в Манасе

Россия / Республика Дагестан     42°43′27″N   47°40′54″E
темп.,
°C
ветер,
м/с
пор.,
м/с
влажн.,
%
обл.,
%
осадки,
мм/ч
давл.,
гПа
погр.,
м
25 июня, сб
сб2500:00+21юв3382100 0.1 1009221
03:00+20юв128336 0.1 1009143
06:00+21юв237998 0.0 1009277
09:00+22св1171100 0.0 1009355
12:00+23св43656 0.0 1009494
15:00+23св2265100 0.1 1008293
18:00+22ссз2271100 1.4 1008186
21:00+22ссз2276100 1.5 100925
26 июня, вс
вс2600:00+23сз3371100 0.0 100738
03:00+22сз4472100 0.1 100873
06:00+22ссз457298 0.0 1008168
09:00+25ссз6760100 0.0 1007424
12:00+26с5559100 0.0 1006490
15:00+25с566083 0.0 1005541
18:00+26ссз6860100 0.0 1005452
21:00+23зюз5675100 0.6 100763
27 июня, пн
пн2700:00+23зсз71171100 0.6 1006194
03:00+22сз913760 0.6 1007266
06:00+23зсз611690 0.0 1007311
09:00+27сз1113570 0.0 1008542
12:00+27ссз912620 0.0 1008601
15:00+26ссз1012634 0.0 1008544
18:00+26ссз1013605 0.0 1008432
21:00+25сз9146088 0.0 1008319
28 июня, вт
вт2800:00+23зсз91663100 0.0 1008342
03:00+22зсз8126499 0.0 1008258
06:00+24сз812570 0.0 1008447
09:00+26ссз1013540 0.0 1007608
12:00+26с1012590 0.0 1007821
15:00+25с1214700 0.0 1008557
18:00+24ссз79670 0.0 1010427
21:00+23сз56630 0.0 101074
29 июня, ср
ср2900:00+23зсз5661100 0.0 101091
03:00+24зсз335580 0.0 101034
06:00+24сз45550 0.0 1011120
09:00+26ссз67470 0.0 1011517
12:00+25св77622 0.0 1011411
15:00+24св45761 0.0 1012510
18:00+23ссв548016 0.0 1013576
21:00+22св337884 0.1 1014548